Weather History for Gallup, NM

Change the Weather History Date:

Tuesday, May 8, 2012

  Actual Average Record
Temperature  
Mean Temperature 48 °F -  
Max Temperature 64 °F 70 °F 87 °F (1989)
Min Temperature 32 °F 32 °F 22 °F (1975)
Degree Days  
Heating Degree Days 17    
Moisture  
Dew Point 30 °F    
Average Humidity 47    
Maximum Humidity 79    
Minimum Humidity 19    
Precipitation  
Precipitation 0.00 in - - ()
Sea Level Pressure  
Sea Level Pressure 29.91 in    
Wind  
Wind Speed 7 mph (ENE)    
Max Wind Speed 25 mph    
Max Gust Speed 40 mph    
Visibility 10 miles    
Events Rain , Thunderstorm    
Averages and records for this station are not official NWS values.
T = Trace of Precipitation, MM = Missing Value Source: NWS Daily Summary

Daily Weather History Graph

Daily Weather History Graph

Search for Another Location

Airport:

Trip Planner

Search our weather history database for the weather conditions in past years. The results will help you decide how hot, cold, wet, or windy it might be!

Date:

Astronomy

May. 08, 2012 Rise Set
Actual Time 6:15 AM MDT 8:07 PM MDT
Civil Twilight 5:48 AM MDT 8:35 PM MDT
Nautical Twilight 5:14 AM MDT 9:09 PM MDT
Astronomical Twilight 4:38 AM MDT 9:45 PM MDT
Moon 11:18 PM MDT (5/8) 8:30 AM MDT (5/8)
Length of Visible Light 14h 47m
Length of Day
13h 51m
Waning Gibbous, 90% of the Moon is Illuminated
May 8
Waning Gibbous
May 12
Last Quarter
May 20
New
May 28
First Quarter
Jun 4
Full

Hourly Weather History & Observations

Time (MDT) Temp. Windchill Dew Point Humidity Pressure Visibility Wind Dir Wind Speed Gust Speed Precip Events Conditions
12:53 AM 45.0 °F - 33.1 °F 63% 29.84 in 10.0 mi Calm Calm - N/A   Clear
1:53 AM 43.0 °F - 33.1 °F 68% 29.83 in 10.0 mi Calm Calm - N/A   Clear
2:53 AM 41.0 °F 38.0 °F 32.0 °F 70% 29.85 in 10.0 mi NNE 4.6 mph - N/A   Clear
3:53 AM 35.1 °F - 28.9 °F 78% 29.86 in 10.0 mi Calm Calm - N/A   Clear
4:53 AM 37.0 °F - 28.9 °F 73% 29.86 in 10.0 mi Calm Calm - N/A   Clear
5:53 AM 32.0 °F 28.7 °F 26.1 °F 79% 29.93 in 10.0 mi SSW 3.5 mph - N/A   Clear
6:53 AM 32.0 °F - 25.0 °F 75% 29.95 in 10.0 mi Calm Calm - N/A   Clear
7:53 AM 46.0 °F 41.4 °F 32.0 °F 58% 29.91 in 10.0 mi ENE 9.2 mph - N/A   Clear
8:53 AM 51.1 °F - 33.1 °F 50% 29.91 in 10.0 mi ENE 6.9 mph - N/A   Clear
9:53 AM 55.9 °F - 34.0 °F 44% 29.89 in 10.0 mi NNE 9.2 mph - N/A   Clear
10:53 AM 62.1 °F - 30.0 °F 30% 29.86 in 10.0 mi NE 11.5 mph 21.9 mph N/A   Clear
11:53 AM 63.0 °F - 33.1 °F 33% 29.86 in 10.0 mi North 12.7 mph 25.3 mph N/A   Clear
12:53 PM 64.0 °F - 21.0 °F 19% 29.86 in 10.0 mi ENE 18.4 mph - N/A   Partly Cloudy
1:02 PM 62.6 °F - 28.4 °F 27% 30.13 in 10.0 mi NE 18.4 mph 31.1 mph N/A Thunderstorm Partly Cloudy
1:24 PM 62.6 °F - 30.2 °F 30% 30.14 in 10.0 mi NE 21.9 mph 40.3 mph N/A   Partly Cloudy
1:53 PM 62.1 °F - 30.9 °F 31% 29.89 in 10.0 mi NE 25.3 mph 35.7 mph 0.00 in Rain Light Rain
2:53 PM 64.9 °F - 32.0 °F 29% 29.89 in 10.0 mi NE 21.9 mph - 0.00 in   Partly Cloudy
3:53 PM 63.0 °F - 28.0 °F 27% 29.92 in 10.0 mi ENE 18.4 mph - N/A   Clear
4:53 PM 61.0 °F - 28.9 °F 30% 29.92 in 10.0 mi ESE 21.9 mph 28.8 mph N/A   Mostly Cloudy
5:53 PM 57.0 °F - 32.0 °F 39% 29.97 in 10.0 mi SSE 11.5 mph - N/A   Clear
6:53 PM 57.9 °F - 30.0 °F 35% 29.98 in 10.0 mi SSE 8.1 mph - N/A   Clear
7:53 PM 57.0 °F - 30.0 °F 36% 29.89 in 10.0 mi East 4.6 mph - N/A   Overcast
8:53 PM 54.0 °F - 30.0 °F 40% 29.90 in 10.0 mi East 10.4 mph - N/A   Overcast
9:53 PM 52.0 °F - 30.9 °F 45% 29.91 in 10.0 mi SE 3.5 mph - N/A   Partly Cloudy
10:53 PM 50.0 °F - 30.9 °F 48% 29.90 in 10.0 mi East 8.1 mph - N/A   Clear
11:53 PM 48.9 °F - 33.1 °F 54% 29.90 in 10.0 mi NE 5.8 mph - N/A   Scattered Clouds